Location: Montbazon
(47.2835°N, 0.6999°E)
Time: 07:04:50
(UTC+00:00)

Cosmos 676 Rocket - Pass Details

Date: 08 November 2025
Orbit: 751 x 778 km, 74.0° (Epoch: 16 December)

Event Time Altitude Azimuth Distance (km) Brightness Sun altitude
Rises 06:13:52 0° 336° (NNW) 3,254 6.9 -6.8°
Reaches altitude 10° 06:16:15 10° 336° (NNW) 2,318 6.1 -6.4°
Maximum altitude 06:21:31 79° 250° (WSW) 783 4.0 -5.5°
Drops below altitude 10° 06:26:42 10° 165° (SSE) 2,283 7.0 -4.7°
Sets 06:29:02 0° 164° (SSE) 3,200 7.8 -4.3°
